Regional Weather Roundup
Issued by NWS San Angelo, TX

Current Version | Previous Version | Text Only | Print | Product List | Glossary On
Versions: 1 2 3 4 5 6 7 8 9 10 11 12 13 14 15 16 17 18 19 20 21 22 23 24 25 26 27 28 29 30 31 32 33 34 35 36 37 38 39 40 41 42 43 44 45 46 47 48 49 50
000
ASUS44 KSJT 210310
RWRSJT
WEST CENTRAL TEXAS REGIONAL WEATHER ROUNDUP
NATIONAL WEATHER SERVICE SAN ANGELO TX
1000 PM CDT MON APR 20 2015

NOTE: "FAIR" INDICATES FEW OR NO CLOUDS BELOW 12,000 FEET WITH NO
SIGNIFICANT WEATHER AND/OR OBSTRUCTIONS TO VISIBILITY.

TXZ049-054-064>066-071>073-076>078-098-099-113-114-127-128-139-140-
154-155-168>170-210400
...LOCATIONS ACROSS WEST CENTRAL TEXAS...

CITY           SKY/WX    TMP DP  RH WIND       PRES   REMARKS
SAN ANGELO     PTCLDY    61  44  53 SE10      29.95R
ABILENE        CLEAR     57  42  57 SE9       29.96R
DYESS AFB      CLEAR     60  45  56 SE8       29.95R
JUNCTION       CLOUDY    60  46  59 E5        29.98R
SWEETWATER     CLEAR     56  41  57 SE6       29.98R
BROWNWOOD      MOCLDY    55  45  67 SE7       29.99R
COLEMAN        PTCLDY    60  44  54 SE7       29.98R
SONORA         MOCLDY    63  45  51 CALM      30.02R
OZONA          FAIR      61  37  41 S10       29.98S
BRADY          CLEAR     59  45  58 SE5       29.98R
$$

TEXAS PANHANDLE/OKLAHOMA PANHANDLE

CITY           SKY/WX    TMP DP  RH WIND       PRES   REMARKS
AMARILLO       TSTM      53  44  71 S12       29.97R
BORGER         LGT RAIN  54  44  69 SW6       30.03R
CANADIAN       MOCLDY    58  36  44 SE9       29.95R
DALHART        CLOUDY    49  44  83 SE17      29.94R
DUMAS          RAIN      48  46  93 E14       29.98F
GUYMON         NOT AVBL
HEREFORD       CLOUDY    52  47  83 E10       29.95S
PAMPA          LGT RAIN  53  41  64 SW3       30.02R
PERRYTON       CLOUDY    54  38  54 SW9       29.98R
$$

SOUTHERN PANHANDLE/SOUTH PLAINS/ROLLING PLAINS

CITY           SKY/WX    TMP DP  RH WIND       PRES   REMARKS
LUBBOCK        PTCLDY    58  36  43 SE16      29.92R
SNYDER         CLEAR    N/A N/A N/A SE9       29.95R
CHILDRESS      CLEAR     58  37  45 SE13      29.96R
SEMINOLE       CLEAR     56  38  50 S8        29.94R
$$

PERMIAN BASIN

CITY           SKY/WX    TMP DP  RH WIND       PRES   REMARKS
MIDLAND        FAIR      64  40  41 S13       29.93R
ODESSA         CLEAR     65  39  38 S15       29.94R
WINK           CLEAR     64  40  41 SE13      29.89R
$$

FAR WEST/SOUTHWEST MOUNTAINS/TRANS PECOS

CITY           SKY/WX    TMP DP  RH WIND       PRES   REMARKS
ALPINE         CLEAR     56  44  63 S8        30.03R
DRYDEN           N/A     59  42  53 E5        29.95R
EL PASO        PTCLDY    75  19  12 W7        29.86R
FORT STOCKTON  CLEAR     61  43  51 SE16G24   29.93R
GUADALUPE PASS CLEAR     57  36  45 NE17      30.00R
MARFA          NOT AVBL
PECOS          CLEAR     65  44  45 E13       29.89R
$$

DALLAS/FORT WORTH METROPLEX

CITY           SKY/WX    TMP DP  RH WIND       PRES   REMARKS
DFW AIRPORT    PTCLDY    61  42  49 NE3       29.99R
FTW MEACHAM    CLEAR     63  40  42 E5        29.99R
DAL-EXECUTIVE  CLEAR     56  41  57 CALM      30.00R
GRAND PRAIRIE  CLEAR     61  44  54 CALM      30.02R
ADDISON        CLEAR     64  36  34 CALM      30.00R
MESQUITE       CLEAR     58  47  66 CALM      30.00R
LANCASTER      PTCLDY    53  47  82 CALM      30.01R
$$

NORTH CENTRAL TEXAS

CITY           SKY/WX    TMP DP  RH WIND       PRES   REMARKS
SHRMAN/DENISON CLEAR     57  48  71 CALM      30.02R
GAINESVILLE    CLEAR     57  46  66 CALM      30.03R
BRIDGEPORT     CLEAR     54  47  77 CALM      30.02R
DENTON         CLEAR     56  48  74 E3        30.00R
WAXAHACHIE     PTCLDY    54  48  80 CALM      30.01R
GRANBURY         N/A     57  47  69 CALM      30.02R
$$

WESTERN NORTH TEXAS

CITY           SKY/WX    TMP DP  RH WIND       PRES   REMARKS
WICHITA FALLS  CLEAR     53  41  63 SE8       29.98R
VERNON         CLEAR     59  36  42 SE10      29.98R
BRECKENRIDGE   CLEAR     60  38  42 SE7       29.97R
COMANCHE       PTCLDY    57  44  61 SE7       30.00R
$$

CENTRAL AND SOUTH CENTRAL TEXAS

CITY           SKY/WX    TMP DP  RH WIND       PRES   REMARKS
AUSTIN/BERGSTM CLOUDY    58  53  84 CALM      30.00R
WACO           CLOUDY    59  46  62 CALM      30.00R
HILLSBORO      MOCLDY    56  44  64 E7        30.01R
TEMPLE         CLOUDY    61  45  55 E3        30.00R
KILLEEN-GRAY   CLOUDY    61  45  56 SE10      30.00R
FORT HOOD      CLOUDY    61  46  56 SE6       30.00R
GEORGETOWN     CLEAR     63  46  55 CALM      30.01R
LAGO VISTA     FAIR      62  45  54 SE3       30.01R
SAN MARCOS     CLOUDY    63  52  67 CALM      30.02R
NEW BRAUNFELS  CLOUDY    64  50  60 E3        30.00R
RANDOLPH AFB   CLOUDY    63  49  61 S1        30.01R
SAN ANTONIO    CLOUDY    63  50  62 SE7       30.02R
STINSON        CLOUDY    63  52  67 S3        30.00R
PLEASANTON     NOT AVBL
LA GRANGE      CLOUDY    64  60  86 CALM      29.99R
GIDDINGS       CLOUDY    61  58  88 CALM      30.04R
$$

EAST TEXAS

CITY           SKY/WX    TMP DP  RH WIND       PRES   REMARKS
PARIS          CLEAR     57  39  51 MISG      30.01R
CLARKSVILLE    NOT AVBL
TYLER          PTCLDY    59  47  64 CALM      30.00R
LONGVIEW       MOCLDY    57  50  77 CALM      29.99R
PALESTINE      CLOUDY    55  39  54 CALM      30.00R
NACOGDOCHES    CLOUDY    55  48  76 CALM      30.00R
$$

TEXAS HILL COUNTRY AND EDWARDS PLATEAU

CITY           SKY/WX    TMP DP  RH WIND       PRES   REMARKS
LLANO          CLOUDY    61  48  63 CALM      30.03R
HORSESHOE BAY  FAIR      61  48  62 S3        30.00R
KERRVILLE      CLOUDY    61  50  67 SE3       30.01R
FREDERICKSBRG  CLOUDY    60  46  60 SE5       30.01R
ROCKSPRINGS    CLOUDY    61  45  55 SE7       30.00S
HONDO          CLOUDY    64  47  53 E6        30.01S
UVALDE         LGT RAIN  63  49  60 E5        29.99R
DEL RIO        CLOUDY    67  42  40 SE13      29.96R
$$

SOUTHEAST TEXAS

CITY           SKY/WX    TMP DP  RH WIND       PRES   REMARKS
COLLEGE STN    CLOUDY    65  47  52 CALM      30.00R
CALDWELL       CLOUDY    61  59  94 CALM      30.03R
CROCKETT       CLOUDY    61  57  88 CALM      30.03R
BRENHAM        CLOUDY    65  56  73 CALM      30.01R
HUNTSVILLE     CLOUDY    62  54  74 CALM      30.00R
CONROE         CLOUDY    60  55  83 CALM      30.01R
HOUSTON BUSH   CLOUDY    63  53  70 CALM      29.99R
HOUSTON HOBBY  CLOUDY    65  53  65 CALM      29.99R
PERLAND        CLOUDY    66  59  78 CALM      30.00R
WHARTON        CLOUDY    62  60  94 CALM      30.00R
$$

THE UPPER TEXAS COAST

CITY           SKY/WX    TMP DP  RH WIND       PRES   REMARKS
ORANGE         PTCLDY    58  54  88 CALM      30.02R
PORT ARTHUR    CLEAR     60  56  86 CALM      30.00R
GALVESTON      CLOUDY    68  54  60 NE3       30.00R
ANGLETON       CLOUDY    62  60  93 CALM      29.99R
BAY CITY       CLOUDY    64  62  93 SE5       29.98S
$$

TEXAS COASTAL BEND, RIO GRANDE PLAINS DEEP SOUTH TEXAS

CITY           SKY/WX    TMP DP  RH WIND       PRES   REMARKS
VICTORIA       CLOUDY    64  57  78 CALM      30.00R
BEEVILLE       FAIR      62  60  93 CALM      30.01R
ROCKPORT       CLOUDY    65  53  65 NW3       30.00R
PORT ARANSAS   MOCLDY    65  56  74 N6        29.98R
PORT LAVACA    CLOUDY    62  58  86 N6        29.99R
CORPUS CHRISTI MOCLDY    65  54  67 NE7       29.99R
KINGSVILLE NAS MOCLDY    63  59  87 N6        30.01R
COTULLA        CLOUDY    66  51  58 CALM      30.00R
LAREDO         CLOUDY    66  53  63 E6        30.01S
BROWNSVILLE    CLOUDY    71  63  75 NE10      29.96R
PORT ISABEL    CLOUDY    71  60  68 NE10      29.96R
HEBBRONVILLE     N/A     63  56  79 CALM      30.01S
MCALLEN        CLOUDY    72  56  57 NE7       29.99R
WESLACO        CLOUDY    68  57  69 N3        29.98R
FALFURRIAS     MOCLDY    63  54  73 N3        30.00R
EDINBURG       CLOUDY    69  56  65 N5        29.99R
$$



USA.gov is the U.S. government's official web portal to all federal, state and local government web resources and services.